Location: Austin
(30.3000°N, 97.7500°W)
Time: 01:22:39
(UTC-06:00)

Cosmos 1867 - Pass Details

Date: 04 November 2025
Orbit: 777 x 796 km, 65.0° (Epoch: 15 November)

Event Time Altitude Azimuth Distance (km) Brightness Sun altitude
Rises 18:26:13 0° 213° (SSW) 3,263 7.5 -10.3°
Reaches altitude 10° 18:28:38 10° 216° (SW) 2,341 6.8 -10.8°
Maximum altitude 18:33:59 66° 298° (WNW) 860 4.0 -11.9°
Drops below altitude 10° 18:39:23 10° 21° (NNE) 2,363 5.7 -13.1°
Enters shadow 18:41:41 - 24° (NNE) 3,236 6.4 -13.6°
